COSMOS 2491 DEB, 44912

Orbit data source: Space-Track

COSMOS 2491 DEB, 44912 is space debris in LEO originally from a launch on Wed, 25 Dec 2013 UTC launched from the Plesetsk Missile And Space Complex (PKMTR). Debris objects in space refer to the collection of defunct objects orbiting the Earth. Examples of debris include non-operational satellites, rocket bodies, and fragments generated from explosions, collisions, or faulty payload assembly.

Loading next visibility...
Identifier
44912, 2013-076F
Orbit
LEO
Country
Flag of CISCIS
Related business
Manufacturer
TsNIIKhM
Mission
Spacecraft
Bus & Motor
Unknown
Mass
Unknown
Launch date (UTC)
2013-12-25 (13 years ago)
Launch vehicle
Unknown
Launch site
Plesetsk Missile And Space Complex (PKMTR)
Object type
Payload
Rocket body
Debris
Shape & HBR
Unknown shape, 0.1 m
Radar Cross Section
Small (<0.1 m²)

Expand to show TLE details & history
Last TLE update: 4 days ago

TLE from 4 days ago
0 COSMOS 2491 DEB
1 44912U 13076F   26252.13381736  .00005113  00000-0  20909-1 0  9997
2 44912  82.4406  48.4054 0199295 274.2616  83.5734 12.79091318308624
Epoch: 2026-09-09T03:12Z
TLE epoch observation values (Epoch: 2026-09-09T03:12:41.819Z)
Latitude
-0.00009°
Longitude
12.0409°
Altitude
1,333.685 km
Speed
7.197 km/s
True Right ascension
03h 13m 37s
True Declination
0° 00' 00"
Sunlit
Object was in daylight at epoch
Visualization orbit readout
Latitude
Unknown
Longitude
Unknown
Altitude
Unknown
Speed
Unknown
Apparent Right ascension
Unknown
Apparent Declination
Unknown
Sunlit
N/A
Visualization observer readout
Local Sidereal Time
22:28:33
Azimuth
Unknown
Elevation
Unknown
Doppler factor
Unknown
Orbital elements
Apogee altitude
1,496.293 km
Perigee altitude
1,188.559 km
Semi-major axis
7,720.563 km
Eccentricity
0.01993
Inclination
82.4406°
RAAN
48.4054°
Arg. of periapsis
274.2616°
True anomaly
85.84855°
Mean anomaly
83.5734°
Eccentric anomaly
84.71041°
Mean motion
3.19941 °/min
Orbital period
112.52 mins
BSTAR
0.020909
Loading maneuver chart data...
Computing Atmospheric mass density...
Loading historical data...
Loading historical data...
Loading historical data...
Loading historical data...
Loading historical data...
Loading historical data...
Loading historical data...

Documentation

Showing up to 5 results
|